Regional Weather Roundup
Issued by NWS

Home | Current Version | Previous Version | Text Only | Print | Product List | Glossary On
Versions: 1 2 3 4 5 6 7 8 9 10 11 12 13 14 15 16 17 18 19 20 21 22 23 24 25 26 27 28 29 30 31 32 33 34 35 36 37 38 39 40 41 42 43 44 45 46 47 48 49 50
000
ASCA42 TJSJ 220611
RWRPR
PUERTO RICO/U.S. VIRGIN ISLANDS HOURLY WEATHER ROUNDUP
NATIONAL WEATHER SERVICE SAN JUAN PR
200 AM AST WED OCT 22 2014

PRZ001-004-220700-
PUERTO RICO

CITY           SKY/WX    TMP DP  RH WIND       PRES   REMARKS
SAN JUAN LMM   PTCLDY    81  73  78 SE3       29.95F
PONCE          PTCLDY    75  72  88 CALM      29.91
CEIBA          CLEAR     81  72  74 E5        29.97F
$$

PRZ006-007-220700-
U.S. VIRGIN ISLANDS

CITY           SKY/WX    TMP DP  RH WIND       PRES   REMARKS
CHRISTIANSTED  PTCLDY    77  73  88 N5        29.95F
$$

HOURLY WEATHER ROUNDUP FOR THE NEWS MEDIA

CITY           SKY/WX    TMP DP  RH WIND       PRES   REMARKS
MIAMI          CLOUDY    75  72  90 CALM      29.93F
ORLANDO        MOCLDY    72  70  93 CALM      29.94F
NEW YORK       CLOUDY    58  53  84 NE8       29.89F
NEWARK         MOCLDY    55  53  93 N12       29.89F
CHICAGO        MOCLDY    46  37  71 NE5       30.25S
HARTFORD       CLOUDY    56  55  97 N6        29.93F
BOSTON         CLOUDY    52  50  93 N12       29.98F
DALLAS         PTCLDY    67  60  78 SE6       30.06F
PHILADELPHIA   CLOUDY    58  51  78 NE15      29.86F



USA.gov is the U.S. government's official web portal to all federal, state and local government web resources and services.